sat.trackr.live / text

‹ back to catalog

STARLINK-36655

NORAD 67834 · 2026-033P

PAYLOAD ACTIVE UNKNOWN

§ Identity

Operator
Country
US
Launch date
2026-02-16
Launch site
AFETR
Launch vehicle
Mass (kg)
RCS (m²)

Purposes: comms

External: N2YO · Heavens-Above · Gunter

§ Orbital elements

Epoch: 2026-09-19T15:53:53.224512Z

Period
94.27 min
Inclination
42.9985°
Eccentricity
0.0002142
Mean motion
15.27584977 rev/d
Perigee alt
481.6 km
Apogee alt
484.5 km
Semi-major
6,861.2 km
B*
3.0861e-4
RAAN
251.2477°
Arg perigee
264.5338°
Mean anomaly
95.5269°
Rev number
3,434

§ Raw data

STARLINK-366551 67834U 26033P   26262.66242158  .00008241  00000+0  30861-3 0  99992 67834  42.9985 251.2477 0002142 264.5338  95.5269 15.27584977 34340

JSON: /api/v1/satellites/67834 · /tle

For live sub-satellite position, see the globe view (requires WebGL).

§ Visibility from observer

Set your observer location to see the next 7 days of passes ≥ 10°. The values pass through the URL so the page stays shareable.

No JS? Fill the form by hand. The geolocation button needs JavaScript.